Tracking 20719 objects as of 26-May-2020
HD Live streaming from Space Station
objects crossing your sky now

INSAT 2R (ARABSAT 1C)

Track INSAT 2R (ARABSAT 1C) now!
INSAT 2R (ARABSAT 1C) is classified as:


NORAD ID: 21894
Int'l Code: 1992-010B
Perigee: 36,148.1 km
Apogee: 36,341.0 km
Inclination: 12.7 °
Period: 1,459.2 minutes
Semi major axis: 42615 km
RCS: 2.2387 m2 (large)
Launch date: February 26, 1992
Source: India (IND)
Launch site: FRENCH GUIANA (FRGUI)
aabbcc
Your satellite tracking list
Your tracking list is empty




NASA's NSSDC Master Catalog

Two Line Element Set (TLE):
1 21894U 92010B   20146.00082601 -.00000190  00000-0  00000+0 0  9996
2 21894  12.6716  27.3115 0022628 231.6867 297.5610  0.98685008102378
Source of the keplerian elements: AFSPC